Location: *
(46.3500°N, 10.9000°E)
Time: 19:03:22
(UTC+00:00)

Vanguard 2 Rocket - Pass Details

Date: 20 April 2021
Orbit: 553 x 3326 km, 32.9° (Epoch: 06 May)

Event Time Altitude Azimuth Distance (km) Brightness Sun altitude
Rises 19:11:09 0° 277° (W) 7,192 12.9 -10.3°
Reaches altitude 10° 19:18:12 10° 264° (W) 5,877 11.9 -11.4°
Maximum altitude 19:28:42 20° 227° (SW) 4,387 10.5 -12.9°
Drops below altitude 10° 19:36:49 10° 187° (S) 4,381 10.1 -14.1°
Enters shadow 19:40:46 - 171° (S) 4,871 10.2 -14.6°
